LGX43B LIMJ-LIBP

Flight info

Callsign LGX43B
Flight time N/A
Altitude 23000
Route ITCAP DCT EKPAL DCT EVKIV DCT LUPOS DCT UVOKI DCT LURUT DCT LAPVO Y579 INKIM
Aircraft BE9L/L-SDFGRWY/S

Departure

Time N/A
Airport Genoa Cristoforo Colombo Airport (LIMJ)

Arrival

Time 2026-04-24 19:01
Airport Abruzzo Airport (LIBP)
Time Latitude Longitude Altitude Speed Heading
2026-04-24 18:54 42.62826 14.22703 8696 ft 225 kts 102°
2026-04-24 18:55 42.60735 14.26120 7234 ft 228 kts 129°
2026-04-24 18:55 42.59702 14.27751 6519 ft 226 kts 127°
2026-04-24 18:55 42.58722 14.29363 5805 ft 225 kts 127°
2026-04-24 18:56 42.57644 14.30974 5061 ft 225 kts 130°
2026-04-24 18:56 42.56519 14.32615 4297 ft 224 kts 130°
2026-04-24 18:56 42.55208 14.33858 3485 ft 228 kts 162°
2026-04-24 18:56 42.53698 14.33653 2915 ft 221 kts 206°
2026-04-24 18:57 42.52743 14.32175 2605 ft 204 kts 250°
2026-04-24 18:57 42.52486 14.30384 2369 ft 188 kts 262°
2026-04-24 18:57 42.52321 14.28671 2114 ft 177 kts 262°
2026-04-24 18:57 42.51887 14.27216 1886 ft 162 kts 223°
2026-04-24 18:58 42.51028 14.26384 1735 ft 142 kts 210°
2026-04-24 18:58 42.50280 14.25688 1578 ft 125 kts 212°
2026-04-24 18:58 42.49600 14.25004 1421 ft 118 kts 214°
2026-04-24 18:58 42.48970 14.24353 1267 ft 110 kts 214°
2026-04-24 18:59 42.48379 14.23741 1125 ft 104 kts 213°
2026-04-24 18:59 42.47799 14.23140 1014 ft 109 kts 213°
2026-04-24 18:59 42.47176 14.22496 896 ft 113 kts 214°
2026-04-24 18:59 42.46576 14.21866 773 ft 105 kts 213°
2026-04-24 19:00 42.46187 14.21466 667 ft 106 kts 213°
2026-04-24 19:00 42.45395 14.20645 465 ft 107 kts 214°
2026-04-24 19:00 42.44813 14.20044 317 ft 104 kts 214°
2026-04-24 19:00 42.44238 14.19448 180 ft 104 kts 215°
2026-04-24 19:01 42.43682 14.18870 61 ft 97 kts 216°
2026-04-24 19:01 42.43222 14.18383 35 ft 68 kts 211°
2026-04-24 19:01 42.42996 14.18166 37 ft 25 kts 219°
2026-04-24 19:01 42.42839 14.17993 37 ft 31 kts 218°
2026-04-24 19:02 42.42707 14.17919 41 ft 20 kts 191°
2026-04-24 19:02 42.42627 14.17899 43 ft 14 kts 191°
2026-04-24 19:02 42.42552 14.17959 43 ft 8 kts 108°
2026-04-24 19:02 42.42616 14.18059 41 ft 22 kts 38°
2026-04-24 19:03 42.42768 14.18215 38 ft 31 kts 36°
2026-04-24 19:03 42.42946 14.18398 38 ft 23 kts 40°
2026-04-24 19:03 42.43016 14.18524 37 ft 7 kts 78°
2026-04-24 19:03 42.43040 14.18636 37 ft 14 kts 43°
2026-04-24 19:04 42.43136 14.18735 37 ft 13 kts 36°
2026-04-24 19:04 42.43175 14.18805 37 ft 9 kts 128°
2026-04-24 19:04 42.43144 14.18858 37 ft 0 kts 128°